Location: Pitton
(51.0667°N, 1.7000°W)
Time: 00:36:39
(UTC+00:00)

Cosmos 1833 Rocket - Pass Details

Date: 17 September 2019
Orbit: 834 x 838 km, 71.0° (Epoch: 13 October)

Event Time Altitude Azimuth Distance (km) Brightness Sun altitude
Rises 23:24:51 0° 331° (NNW) 3,395 6.7 -36.3°
Reaches altitude 10° 23:27:44 10° 344° (NNW) 2,457 5.9 -36.4°
Enters shadow 23:31:58 26° 33° (NNE) 1,608 4.4 -36.5°
